Weather History for KGAO - November, 2011

Change the Weather History Date:

Wednesday, November 23, 2011

  Actual Average (KAXO) Record (KAXO)
Temperature  
Mean Temperature 66 °F -  
Max Temperature 71 °F 64 °F 77 °F (2004)
Min Temperature 62 °F 61 °F 60 °F (1997)
Cooling Degree Days 2    
Growing Degree Days 16 (Base 50)    
Moisture  
Dew Point 60 °F    
Average Humidity 80    
Maximum Humidity 100    
Minimum Humidity 50    
Precipitation  
Precipitation 0.12 in - - ()
Sea Level Pressure  
Sea Level Pressure 30.12 in    
Wind  
Wind Speed 13 mph (NNW)    
Max Wind Speed 21 mph    
Max Gust Speed 29 mph    
Visibility 10 miles    
Events Rain , Thunderstorm    
Averages and records for this station are not official NWS values.
T = Trace of Precipitation, MM = Missing Value Source: NWS Daily Summary

Daily Weather History Graph

Daily Weather History Graph

Search for Another Location

Airport or City:

Trip Planner

Search our weather history database for the weather conditions in past years. The results will help you decide how hot, cold, wet, or windy it might be!

Date:

Astronomy

Nov. 23, 2011 Rise Set
Actual Time 6:31 AM CST 5:03 PM CST
Civil Twilight 6:05 AM CST 5:28 PM CST
Nautical Twilight 5:36 AM CST 5:57 PM CST
Astronomical Twilight 5:08 AM CST 6:26 PM CST
Moon 4:39 AM CST (11/23) 3:43 PM CST (11/23)
Length of Visible Light 11h 22m
Length of Day
10h 31m
Waning Crescent, 3% of the Moon is Illuminated
Nov 23
Waning Crescent
Nov 25
New
Dec 2
First Quarter
Dec 10
Full
Dec 17
Last Quarter

Hourly Weather History & Observations

Time (CST) Temp. Dew Point Humidity Pressure Visibility Wind Dir Wind Speed Gust Speed Precip Events Conditions
12:15 AM 71.6 °F 69.8 °F 94% 30.04 in 10.0 mi WNW 9.2 mph - N/A   Mostly Cloudy
12:35 AM 71.6 °F 69.8 °F 94% 30.04 in 10.0 mi NW 8.1 mph - N/A Thunderstorm Overcast
12:55 AM 71.6 °F 69.8 °F 94% 30.04 in 10.0 mi NNW 15.0 mph - N/A   Mostly Cloudy
1:35 AM 69.8 °F 69.8 °F 100% 30.04 in 5.0 mi NNW 11.5 mph - N/A Rain Heavy Rain
1:55 AM 68.0 °F 68.0 °F 100% 30.05 in 5.0 mi NNW 11.5 mph - 0.08 in Rain Light Rain
2:15 AM 68.0 °F 68.0 °F 100% 30.06 in 5.0 mi NNW 17.3 mph 23.0 mph 0.04 in Rain Heavy Rain
2:35 AM 68.0 °F 68.0 °F 100% 30.05 in 10.0 mi NNW 13.8 mph - 0.04 in   Overcast
2:55 AM 68.0 °F 68.0 °F 100% 30.06 in 10.0 mi NNW 11.5 mph 19.6 mph 0.04 in Rain Light Rain
3:15 AM 68.0 °F 68.0 °F 100% 30.05 in 10.0 mi North 16.1 mph 19.6 mph N/A   Overcast
3:35 AM 66.2 °F 66.2 °F 100% 30.05 in 10.0 mi NNW 12.7 mph - N/A   Overcast
3:55 AM 66.2 °F 66.2 °F 100% 30.06 in 10.0 mi North 11.5 mph - N/A   Overcast
4:15 AM 66.2 °F 64.4 °F 94% 30.07 in 10.0 mi NNW 11.5 mph - N/A   Overcast
4:35 AM 66.2 °F 64.4 °F 94% 30.07 in 10.0 mi NNW 12.7 mph 17.3 mph N/A   Overcast
4:55 AM 66.2 °F 64.4 °F 94% 30.07 in 10.0 mi NNW 15.0 mph - N/A   Overcast
5:15 AM 64.4 °F 64.4 °F 100% 30.08 in 10.0 mi NNW 12.7 mph 17.3 mph N/A   Overcast
5:35 AM 64.4 °F 64.4 °F 100% 30.10 in 10.0 mi NNW 12.7 mph 17.3 mph N/A   Overcast
5:55 AM 64.4 °F 64.4 °F 100% 30.10 in 10.0 mi NNW 13.8 mph 17.3 mph N/A   Overcast
6:15 AM 64.4 °F 64.4 °F 100% 30.11 in 10.0 mi NNW 12.7 mph 17.3 mph N/A   Overcast
6:35 AM 64.4 °F 62.6 °F 94% 30.12 in 10.0 mi NNW 12.7 mph - N/A   Overcast
6:55 AM 64.4 °F 62.6 °F 94% 30.12 in 10.0 mi NNW 17.3 mph 20.7 mph N/A   Overcast
7:15 AM 64.4 °F 62.6 °F 94% 30.14 in 10.0 mi NNW 13.8 mph - N/A   Overcast
7:35 AM 62.6 °F 60.8 °F 94% 30.15 in 10.0 mi NNW 20.7 mph 28.8 mph N/A   Overcast
7:55 AM 62.6 °F 60.8 °F 94% 30.17 in 10.0 mi NNW 16.1 mph - N/A   Overcast
8:15 AM 62.6 °F 60.8 °F 94% 30.17 in 10.0 mi NNW 18.4 mph - N/A   Overcast
8:35 AM 62.6 °F 59.0 °F 88% 30.18 in 10.0 mi North 17.3 mph - N/A   Overcast
8:55 AM 62.6 °F 59.0 °F 88% 30.18 in 10.0 mi NNW 13.8 mph - N/A   Overcast
9:15 AM 62.6 °F 59.0 °F 88% 30.19 in 10.0 mi North 16.1 mph 20.7 mph N/A   Overcast
9:35 AM 64.4 °F 59.0 °F 83% 30.19 in 10.0 mi North 16.1 mph - N/A   Overcast
9:55 AM 66.2 °F 59.0 °F 78% 30.18 in 10.0 mi North 12.7 mph - N/A   Scattered Clouds
10:15 AM 68.0 °F 59.0 °F 73% 30.17 in 10.0 mi North 12.7 mph 18.4 mph N/A   Scattered Clouds
10:35 AM 68.0 °F 59.0 °F 73% 30.17 in 10.0 mi NNW 15.0 mph 19.6 mph N/A   Clear
10:55 AM 68.0 °F 57.2 °F 68% 30.17 in 10.0 mi NNW 15.0 mph 19.6 mph N/A   Clear
11:15 AM 69.8 °F 57.2 °F 64% 30.16 in 10.0 mi NNW 16.1 mph 23.0 mph N/A   Clear
11:35 AM 69.8 °F 57.2 °F 64% 30.15 in 10.0 mi NNW 12.7 mph - N/A   Clear
11:55 AM 69.8 °F 57.2 °F 64% 30.15 in 10.0 mi North 12.7 mph 17.3 mph N/A   Clear
12:15 PM 71.6 °F 57.2 °F 60% 30.14 in 10.0 mi North 13.8 mph 17.3 mph N/A   Clear
12:35 PM 71.6 °F 55.4 °F 57% 30.14 in 10.0 mi North 11.5 mph 18.4 mph N/A   Clear
12:55 PM 69.8 °F 55.4 °F 60% 30.13 in 10.0 mi North 11.5 mph 18.4 mph N/A   Clear
1:15 PM 71.6 °F 57.2 °F 60% 30.12 in 10.0 mi NNW 13.8 mph 19.6 mph N/A   Clear
1:35 PM 71.6 °F 55.4 °F 57% 30.13 in 10.0 mi North 12.7 mph - N/A   Clear
2:15 PM 71.6 °F 55.4 °F 57% 30.12 in 10.0 mi NNW 16.1 mph 19.6 mph N/A   Clear
2:35 PM 71.6 °F 53.6 °F 53% 30.12 in 10.0 mi North 15.0 mph 19.6 mph N/A   Clear
2:55 PM 71.6 °F 53.6 °F 53% 30.13 in 10.0 mi North 15.0 mph - N/A   Clear
3:15 PM 71.6 °F 51.8 °F 50% 30.13 in 10.0 mi North 15.0 mph 18.4 mph N/A   Clear
3:35 PM 71.6 °F 51.8 °F 50% 30.13 in 10.0 mi North 13.8 mph - N/A   Clear
3:55 PM 69.8 °F 51.8 °F 53% 30.14 in 10.0 mi North 12.7 mph - N/A   Clear
4:15 PM 69.8 °F 51.8 °F 53% 30.15 in 10.0 mi North 10.4 mph 16.1 mph N/A   Clear
4:35 PM 69.8 °F 53.6 °F 56% 30.15 in 10.0 mi North 10.4 mph - N/A   Clear
4:55 PM 68.0 °F 53.6 °F 60% 30.16 in 10.0 mi North 6.9 mph - N/A   Clear
5:15 PM 64.4 °F 53.6 °F 68% 30.17 in 10.0 mi North 4.6 mph - N/A   Clear
5:35 PM 62.6 °F 53.6 °F 72% 30.17 in 10.0 mi North 4.6 mph - N/A   Clear
5:55 PM 62.6 °F 53.6 °F 72% 30.17 in 10.0 mi NNW 5.8 mph - N/A   Clear
6:15 PM 62.6 °F 53.6 °F 72% 30.18 in 10.0 mi NNW 6.9 mph - N/A   Clear
6:35 PM 60.8 °F 53.6 °F 77% 30.18 in 10.0 mi NNW 4.6 mph - N/A   Clear
6:55 PM 60.8 °F 53.6 °F 77% 30.19 in 10.0 mi Calm Calm - N/A   Clear
7:15 PM 60.8 °F 53.6 °F 77% 30.20 in 10.0 mi NNW 4.6 mph - N/A   Clear
7:35 PM 60.8 °F 53.6 °F 77% 30.20 in 10.0 mi NNW 4.6 mph - N/A   Clear
7:55 PM 59.0 °F 53.6 °F 82% 30.21 in 10.0 mi NNW 5.8 mph - N/A   Clear
8:15 PM 59.0 °F 55.4 °F 88% 30.21 in 10.0 mi NNW 6.9 mph - N/A   Clear
8:35 PM 60.8 °F 55.4 °F 82% 30.22 in 10.0 mi NNW 8.1 mph - N/A   Clear
8:55 PM 60.8 °F 55.4 °F 82% 30.23 in 10.0 mi North 6.9 mph - N/A   Clear
9:15 PM 60.8 °F 55.4 °F 82% 30.23 in 10.0 mi North 6.9 mph - N/A   Clear
9:35 PM 62.6 °F 57.2 °F 82% 30.23 in 10.0 mi North 6.9 mph - N/A   Clear
9:55 PM 62.6 °F 55.4 °F 77% 30.23 in 10.0 mi North 6.9 mph - N/A   Clear
10:15 PM 62.6 °F 55.4 °F 77% 30.23 in 10.0 mi North 11.5 mph - N/A   Clear
10:35 PM 62.6 °F 55.4 °F 77% 30.23 in 10.0 mi North 12.7 mph - N/A   Clear
10:55 PM 62.6 °F 55.4 °F 77% 30.23 in 10.0 mi NNE 10.4 mph - N/A   Clear
11:15 PM 62.6 °F 55.4 °F 77% 30.22 in 10.0 mi North 12.7 mph - N/A   Clear
11:35 PM 62.6 °F 55.4 °F 77% 30.23 in 10.0 mi NNE 10.4 mph - N/A   Clear
11:55 PM 62.6 °F 55.4 °F 77% 30.23 in 10.0 mi North 15.0 mph 19.6 mph N/A   Clear